Weather History for KGED - December, 2014

Change the Weather History Date:

Sunday, December 7, 2014

  Actual Average Record
Temperature  
Mean Temperature 41 °F 42 °F  
Max Temperature 46 °F 51 °F 74 °F (1951)
Min Temperature 36 °F 33 °F 11 °F (2007)
Degree Days  
Heating Degree Days 24 23  
Month to date heating degree days 135 156  
Since 1 July heating degree days 898 940  
Cooling Degree Days 0 0  
Month to date cooling degree days 0 0  
Year to date cooling degree days 1151 1196  
Moisture  
Dew Point 29 °F    
Average Humidity 64    
Maximum Humidity 89    
Minimum Humidity 38    
Precipitation  
Precipitation 0.10 in 0.12 in 1.15 in (1957)
Month to date precipitation 1.19 0.83  
Year to date precipitation 41.43 41.31  
Sea Level Pressure  
Sea Level Pressure 30.35 in    
Wind  
Wind Speed 14 mph (NNE)    
Max Wind Speed 24 mph    
Max Gust Speed 33 mph    
Visibility 9 miles    
Events Rain    
T = Trace of Precipitation, MM = Missing Value Source: NWS Daily Summary

Daily Weather History Graph

Daily Weather History Graph

Search for Another Location

Airport or City:

Trip Planner

Search our weather history database for the weather conditions in past years. The results will help you decide how hot, cold, wet, or windy it might be!

Date:

Astronomy

Dec. 07, 2014 Rise Set
Actual Time 7:06 AM EST 4:39 PM EST
Civil Twilight 6:36 AM EST 5:09 PM EST
Nautical Twilight 6:03 AM EST 5:42 PM EST
Astronomical Twilight 5:31 AM EST 6:14 PM EST
Moon 6:05 PM EST (12/7) 7:48 AM EST (12/7)
Length of Visible Light 10h 33m
Length of Day
9h 33m
Full, 98% of the Moon is Illuminated
Dec 7
Full
Dec 14
Last Quarter
Dec 21
New
Dec 28
First Quarter
Jan 4
Full

Hourly Weather History & Observations

Time (EST) Temp. Windchill Dew Point Humidity Pressure Visibility Wind Dir Wind Speed Gust Speed Precip Events Conditions
12:25 AM 44.1 °F 36.2 °F 39.9 °F 85% 30.15 in 4.0 mi North 18.4 mph 28.8 mph 0.01 in Rain Light Rain
12:35 AM 44.1 °F 37.1 °F 39.9 °F 85% 30.15 in 3.0 mi North 15.0 mph 24.2 mph 0.02 in Rain Light Rain
12:54 AM 44.1 °F 37.1 °F 39.9 °F 85% 30.17 in 4.0 mi North 15.0 mph 23.0 mph 0.03 in Rain Light Rain
1:12 AM 43.0 °F 36.4 °F 39.9 °F 89% 30.18 in 5.0 mi North 12.7 mph 24.2 mph 0.00 in Rain Light Rain
1:54 AM 43.0 °F 36.0 °F 39.0 °F 86% 30.20 in 6.0 mi North 13.8 mph 24.2 mph 0.02 in Rain Rain
2:54 AM 42.1 °F 34.5 °F 37.9 °F 85% 30.22 in 10.0 mi North 15.0 mph 26.5 mph 0.04 in Rain Light Rain
3:21 AM 42.1 °F 34.5 °F 37.9 °F 85% 30.22 in 10.0 mi North 15.0 mph 23.0 mph 0.01 in Rain Light Rain
3:32 AM 42.1 °F 34.9 °F 37.9 °F 85% 30.22 in 10.0 mi North 13.8 mph 23.0 mph 0.01 in Rain Light Rain
3:54 AM 42.1 °F 35.2 °F 37.0 °F 82% 30.23 in 10.0 mi North 12.7 mph 23.0 mph 0.01 in   Overcast
4:02 AM 42.1 °F 35.7 °F 37.0 °F 82% 30.23 in 10.0 mi North 11.5 mph 24.2 mph 0.00 in Rain Light Rain
4:54 AM 41.0 °F 34.3 °F 34.0 °F 76% 30.26 in 10.0 mi North 11.5 mph 23.0 mph 0.00 in   Overcast
5:54 AM 41.0 °F 33.1 °F 30.9 °F 67% 30.29 in 10.0 mi North 15.0 mph 27.6 mph N/A   Overcast
6:54 AM 39.9 °F 32.5 °F 30.0 °F 68% 30.33 in 10.0 mi North 12.7 mph 23.0 mph N/A   Overcast
7:54 AM 39.0 °F 29.6 °F 28.9 °F 67% 30.36 in 10.0 mi North 18.4 mph 25.3 mph N/A   Clear
8:54 AM 39.0 °F - 27.0 °F 62% 30.39 in 10.0 mi North - - N/A   Clear
9:54 AM 39.9 °F 30.2 °F 27.0 °F 60% 30.42 in 10.0 mi NNE 20.7 mph 31.1 mph N/A   Clear
10:54 AM 41.0 °F 31.9 °F 26.1 °F 55% 30.42 in 10.0 mi NNE 19.6 mph 29.9 mph N/A   Clear
11:54 AM 42.1 °F 34.2 °F 26.1 °F 53% 30.42 in 10.0 mi NNE 16.1 mph 27.6 mph N/A   Clear
12:54 PM 44.1 °F 37.4 °F 26.1 °F 49% 30.42 in 10.0 mi North 13.8 mph 27.6 mph N/A   Clear
1:54 PM 45.0 °F 38.2 °F 25.0 °F 46% 30.42 in 10.0 mi NNE 15.0 mph 24.2 mph N/A   Clear
2:54 PM 46.0 °F 39.3 °F 24.1 °F 42% 30.43 in 10.0 mi NNE 16.1 mph 21.9 mph N/A   Clear
3:54 PM 46.0 °F 41.4 °F 24.1 °F 42% 30.44 in 10.0 mi NNE 9.2 mph - N/A   Clear
4:54 PM 44.1 °F 38.1 °F 21.0 °F 40% 30.46 in 10.0 mi NNE 11.5 mph - N/A   Clear
5:54 PM 42.1 °F 35.7 °F 21.0 °F 43% 30.48 in 10.0 mi North 11.5 mph - N/A   Clear
6:54 PM 41.0 °F 33.5 °F 18.0 °F 40% 30.49 in 10.0 mi NNE 13.8 mph 23.0 mph N/A   Clear
7:54 PM 39.9 °F 32.5 °F 19.0 °F 43% 30.50 in 10.0 mi NNE 12.7 mph - N/A   Clear
8:54 PM 39.0 °F 31.8 °F 18.0 °F 43% 30.51 in 10.0 mi NNE 11.5 mph - N/A   Clear
9:54 PM 37.9 °F 29.6 °F 19.0 °F 47% 30.51 in 10.0 mi NNE 13.8 mph 26.5 mph N/A   Clear
10:54 PM 37.0 °F 28.1 °F 19.9 °F 50% 30.53 in 10.0 mi NNE 15.0 mph 24.2 mph N/A   Clear
11:54 PM 36.0 °F 26.7 °F 21.0 °F 55% 30.52 in 10.0 mi NNE 15.0 mph - N/A   Clear